Regional Weather Roundup
Issued by NWS Newport/Morehead, NC

Current Version | Previous Version | Text Only | Print | Product List | Glossary On
Versions: 1 2 3 4 5 6 7 8 9 10 11 12 13 14 15 16 17 18 19 20 21 22 23 24 25 26 27 28 29 30 31 32 33 34 35 36 37 38 39 40 41 42 43 44 45 46 47 48 49 50
000
ASUS42 KMHX 290513
RWRMHX
WEATHER ROUNDUP FOR EASTERN NORTH CAROLINA
NATIONAL WEATHER SERVICE NEWPORT/MOREHEAD CITY NC
100 AM EDT FRI JUL 29 2016

NOTE: "FAIR" INDICATES FEW OR NO CLOUDS BELOW 12,000 FEET
WITH NO SIGNIFICANT WEATHER AND/OR OBSTRUCTIONS TO VISIBILITY

NCZ015>017-031-032-045>047-102-103-290600-
NORTH COAST

CITY           SKY/WX    TMP DP  RH WIND       PRES   REMARKS
EDENTON        CLEAR     86  73  64 SW5       29.87R
ELIZABETH CITY CLEAR     83  74  74 SW9       29.85R
KITTY HAWK     PTCLDY    84  76  76 SW9       29.86R
MANTEO           N/A     84  79  85 W9        29.88R

$$

NCZ045>047-081-094-103-104-290600-
CENTRAL COAST

CITY           SKY/WX    TMP DP  RH WIND       PRES   REMARKS
FRISCO         CLEAR     82  77  84 SW12      29.88S

$$

NCZ095-097-098-100-101-290600-
SOUTHERN COAST

CITY           SKY/WX    TMP DP  RH WIND       PRES   REMARKS
BEAUFORT       CLEAR     83  78  85 SW13      29.89F
CEDAR ISLAND   NOT AVBL
JACKSONVILLE   CLEAR     82  75  79 SW10      29.89S
PINEY ISLAND   NOT AVBL
WILMINGTON     CLEAR     83  76  79 SW10      29.91F


$$

NCZ011>013-027>030-043-044-078>080-089-090>093-098-290600-
COASTAL PLAIN

CITY           SKY/WX    TMP DP  RH WIND       PRES   REMARKS
AHOSKIE        CLEAR     78  73  84 CALM      29.86R
CLINTON        CLEAR     83  76  81 SW6       29.90R
ELIZABETHTOWN  CLEAR     82  76  81 S8        29.90F
GOLDSBORO      CLEAR     84  79  84 SW9       29.86S
GREENVILLE     CLEAR     82  75  78 SW9       29.89S
HAVELOCK       CLEAR     82  74  76 SW9       29.90S
KENANSVILLE    NOT AVBL
KINSTON        CLEAR     83  74  74 SW10      29.89R
NEW BERN       CLEAR     80  74  81 SW7       29.90R
RICHLANDS      CLEAR     80  76  87 SW8       29.90S
ROCKY MOUNT    CLEAR     82  73  74 SW7       29.87R
WASHINGTON     CLEAR     82  74  77 SW7       29.87R
WHITEVILLE     CLEAR     82  76  81 S6        29.91F

$$

AMZ130-135-150-152-154-156-158-170-250-252-270-ANZ085-086-088-633-658-670-290600-
MARINE OBSERVATIONS

STATION/POSITION TIME  TEMP    WIND        PRES    WAVE   SWELL
                       AIR SEA DIR/SP/G            HT/PER HT/PER
                 (UTC) (F)     (DEG/KT/KT) (MB)    (FT/S) (FT/S)
CHESAPEAKE LIGHT NOT AVBL
64 E VA BEACH    0450   84 81  210/ 14/ 16 1010.8    3/ 4   2/ 7
DUCK             0400   87 72  230/ 17/ 19 1010.0
2 E DUCK         0411      76                N/A     1/ 7
OREGON INLET     0400   86 80  220/ 16/ 20 1010.8
13E OREGON INLT  0500      81                N/A     3/ 4   2/ 7
HATTERAS CG      0400   82 84  220/ 11/ 15 1011.3
DIAMOND BUOY     0450   85 85  230/ 19/ 23 1011.5    4/ 4
CAPE LOOKOUT     0500   84     230/ 12/ 20 1012.1
BEAUFORT LAB     0400   84 84  230/  5/ 14 1011.8
30 SE NEW RVR IN 0408   85 85  230/ 17/ 21 1012.9
30 SE NEW RVR IN 0425      85                N/A     5/ 6
27 SE WRIGHTSVLE 0408   85 84  230/ 17/ 23 1013.4
5 SE WRIGHTSVLE  NOT AVBL
225 S CAPE HAT   0450   84 84  250/  8/ 10 1015.8    4/ 7   3/ 7
41 SE CHARLESTON 0450   86 86  220/ 17/ 21 1014.0    4/ 5   2/ 8

$$



USA.gov is the U.S. government's official web portal to all federal, state and local government web resources and services.